FW6124 Weather Reports


Display with metric or nautical units.
time (UTC)temp
F
wind
direction
speed
MPH
gust
MPH
rain 1hr
in
rain 24hr
in
rain mn
in
humidity
%
barometer
mb
20260505003008 79 327 2.0 5.0 0.00 0.00 0.00 39 1008.9
20260505001507 79 281 1.0 8.0 0.00 0.00 0.00 40 1009.0
20260505000008 79 5 0.0 6.0 0.00 0.00 0.00 40 1009.0
20260504234504 79 326 1.0 9.0 0.00 0.00 0.00 43 1009.2
20260504233002 80 340 0.0 9.0 0.00 0.00 0.00 40 1009.2
20260504231602 80 321 0.0 10.0 0.00 0.00 0.00 41 1009.3
20260504230108 80 331 0.0 6.0 0.00 0.00 0.00 39 1009.4
20260504224556 80 5 0.0 8.0 0.00 0.00 0.00 40 1009.6
20260504223058 80 355 0.0 6.0 0.00 0.00 0.00 44 1009.7
20260504221601 79 22 0.0 11.0 0.00 0.00 0.00 43 1009.8
20260504220055 79 348 4.0 10.0 0.00 0.00 0.00 45 1009.8
20260504214548 79 342 1.0 7.0 0.00 0.00 0.00 44 1009.9
20260504213047 79 13 1.0 9.0 0.00 0.00 0.00 46 1009.9
20260504211547 78 22 0.0 8.0 0.00 0.00 0.00 48 1010.0
20260504210046 78 348 0.0 6.0 0.00 0.00 0.00 50 1010.2
20260504204542 78 330 0.0 8.0 0.00 0.00 0.00 51 1010.3
20260504203040 77 335 0.0 6.0 0.00 0.00 0.00 50 1010.3
20260504201538 77 273 1.0 7.0 0.00 0.00 0.00 47 1010.3
20260504200036 77 321 1.0 6.0 0.00 0.00 0.00 49 1010.6
20260504194537 77 297 1.0 7.0 0.00 0.00 0.00 47 1010.4
20260504193033 76 341 1.0 5.0 0.00 0.00 0.00 50 1010.4
20260504191538 76 323 0.0 6.0 0.00 0.00 0.00 51 1010.5
20260504190030 76 304 0.0 5.0 0.00 0.00 0.00 56 1010.5
20260504184528 75 5 1.0 3.0 0.00 0.00 0.00 50 1010.6
20260504183025 74 298 0.0 6.0 0.00 0.00 0.00 52 1010.6
20260504181522 73 15 1.0 5.0 0.00 0.00 0.00 53 1010.6
20260504180017 73 350 0.0 4.0 0.00 0.00 0.00 55 1010.6
20260504174512 72 348 0.0 3.0 0.00 0.00 0.00 57 1010.6
20260504173009 71 340 0.0 4.0 0.00 0.00 0.00 56 1010.7
20260504171506 69 344 0.0 2.0 0.00 0.00 0.00 60 1010.7
20260504081537 51 0.0 0.0 0.00 0.00 0.00 78 1009.9
20260504044535 57 0.0 0.0 0.00 0.00 0.00 70 1010.0
20260504043030 58 0.0 0.0 0.00 0.00 0.00 68 1009.9
20260504041525 59 0.0 0.0 0.00 0.00 0.00 66 1009.9
20260504040021 60 0.0 0.0 0.00 0.00 0.00 64 1009.9
20260504034517 61 0.0 0.0 0.00 0.00 0.00 63 1009.8
20260504033013 62 0.0 0.0 0.00 0.00 0.00 62 1009.8
20260504031507 64 0.0 0.0 0.00 0.00 0.00 61 1009.7
20260504030003 65 213 0.0 0.0 0.00 0.00 0.00 61 1009.8
20260504024502 66 209 0.0 0.0 0.00 0.00 0.00 61 1009.8
20260504023002 67 204 0.0 0.0 0.00 0.00 0.00 60 1009.8
20260504021600 68 311 0.0 0.0 0.00 0.00 0.00 58 1009.9
20260504020058 70 350 0.0 0.0 0.00 0.00 0.00 58 1010.1
20260504014605 71 350 0.0 0.0 0.00 0.00 0.00 54 1010.1
20260504013058 72 241 0.0 2.0 0.00 0.00 0.00 52 1010.3
20260504011554 74 306 0.0 3.0 0.00 0.00 0.00 49 1010.5
20260504010100 76 240 2.0 8.0 0.00 0.00 0.00 50 1010.6
20260504004550 78 317 0.0 7.0 0.00 0.00 0.00 46 1010.7